| time (UTC) | temp C | wind direction | speed KPH | gust KPH | rain 1hr cm | rain 24hr cm | rain mn cm | humidity % | barometer mb |
| 20260904210053 | 37 | 28 | 3.2 | 3.2 | 0.00 | 0.00 | 0.00 | 36 | 1013.6 |
| 20260904205548 | 38 | 16 | 0.0 | 1.6 | 0.00 | 0.00 | 0.00 | 35 | 1014.0 |
| 20260904205045 | 38 | 124 | 4.8 | 6.4 | 0.00 | 0.00 | 0.00 | 35 | 1013.8 |
| 20260904204541 | 38 | 190 | 4.8 | 4.8 | 0.00 | 0.00 | 0.00 | 35 | 1014.0 |
| 20260904204036 | 38 | 133 | 9.7 | 12.9 | 0.00 | 0.00 | 0.00 | 33 | 1014.0 |
| 20260904203532 | 38 | 182 | 6.4 | 6.4 | 0.00 | 0.00 | 0.00 | 34 | 1014.0 |
| 20260904203028 | 38 | 239 | 9.7 | 12.9 | 0.00 | 0.00 | 0.00 | 35 | 1013.9 |
| 20260904202524 | 38 | 192 | 8.0 | 11.3 | 0.00 | 0.00 | 0.00 | 35 | 1014.1 |
| 20260904202020 | 37 | 13 | 1.6 | 3.2 | 0.00 | 0.00 | 0.00 | 35 | 1014.1 |
| 20260904201515 | 37 | 340 | 4.8 | 4.8 | 0.00 | 0.00 | 0.00 | 36 | 1014.1 |
| 20260904201010 | 37 | 232 | 9.7 | 11.3 | 0.00 | 0.00 | 0.00 | 36 | 1014.4 |
| 20260904200509 | 38 | 176 | 8.0 | 11.3 | 0.00 | 0.00 | 0.00 | 34 | 1014.5 |
| 20260904200004 | 37 | 8 | 4.8 | 4.8 | 0.00 | 0.00 | 0.00 | 37 | 1014.5 |
| 20260904195502 | 37 | 154 | 6.4 | 6.4 | 0.00 | 0.00 | 0.00 | 37 | 1014.5 |
| 20260904195001 | 37 | 184 | 8.0 | 12.9 | 0.00 | 0.00 | 0.00 | 36 | 1014.6 |
| 20260904194457 | 37 | 259 | 8.0 | 11.3 | 0.00 | 0.00 | 0.00 | 36 | 1014.6 |
| 20260904193951 | 37 | 173 | 4.8 | 4.8 | 0.00 | 0.00 | 0.00 | 36 | 1014.6 |
| 20260904193447 | 37 | 336 | 4.8 | 6.4 | 0.00 | 0.00 | 0.00 | 36 | 1014.7 |
| 20260904192942 | 37 | 214 | 4.8 | 6.4 | 0.00 | 0.00 | 0.00 | 37 | 1014.9 |
| 20260904192437 | 36 | 204 | 8.0 | 11.3 | 0.00 | 0.00 | 0.00 | 38 | 1014.7 |
| 20260904191933 | 36 | 185 | 9.7 | 11.3 | 0.00 | 0.00 | 0.00 | 38 | 1014.9 |
| 20260904191430 | 36 | 248 | 9.7 | 12.9 | 0.00 | 0.00 | 0.00 | 40 | 1014.9 |
| 20260904190926 | 36 | 103 | 11.3 | 12.9 | 0.00 | 0.00 | 0.00 | 40 | 1015.0 |
| 20260904190426 | 35 | 160 | 11.3 | 14.5 | 0.00 | 0.00 | 0.00 | 40 | 1015.0 |
| 20260904185923 | 35 | 160 | 3.2 | 4.8 | 0.00 | 0.00 | 0.00 | 41 | 1015.3 |
| 20260904185419 | 36 | 72 | 4.8 | 6.4 | 0.00 | 0.00 | 0.00 | 41 | 1015.3 |
| 20260904184918 | 36 | 294 | 4.8 | 4.8 | 0.00 | 0.00 | 0.00 | 41 | 1015.2 |
| 20260904184413 | 36 | 108 | 12.9 | 14.5 | 0.00 | 0.00 | 0.00 | 41 | 1015.3 |
| 20260904183908 | 36 | 223 | 8.0 | 9.7 | 0.00 | 0.00 | 0.00 | 42 | 1015.4 |
| 20260904183403 | 36 | 134 | 4.8 | 6.4 | 0.00 | 0.00 | 0.00 | 41 | 1015.5 |
| 20260904182900 | 36 | 155 | 6.4 | 9.7 | 0.00 | 0.00 | 0.00 | 39 | 1015.6 |
| 20260904182400 | 36 | 164 | 9.7 | 11.3 | 0.00 | 0.00 | 0.00 | 41 | 1015.7 |
| 20260904181855 | 35 | 346 | 4.8 | 6.4 | 0.00 | 0.00 | 0.00 | 41 | 1015.6 |
| 20260904181349 | 35 | 222 | 3.2 | 6.4 | 0.00 | 0.00 | 0.00 | 42 | 1015.6 |
| 20260904180845 | 35 | 4 | 1.6 | 3.2 | 0.00 | 0.00 | 0.00 | 43 | 1015.6 |
| 20260904180335 | 35 | 91 | 6.4 | 9.7 | 0.00 | 0.00 | 0.00 | 45 | 1015.9 |
| 20260904175834 | 35 | 113 | 6.4 | 9.7 | 0.00 | 0.00 | 0.00 | 45 | 1016.0 |
| 20260904175334 | 35 | 144 | 8.0 | 16.1 | 0.00 | 0.00 | 0.00 | 44 | 1016.0 |
| 20260904174827 | 35 | 150 | 6.4 | 6.4 | 0.00 | 0.00 | 0.00 | 43 | 1016.1 |
| 20260904174323 | 35 | 197 | 4.8 | 4.8 | 0.00 | 0.00 | 0.00 | 44 | 1016.0 |
| 20260904173818 | 34 | 96 | 4.8 | 4.8 | 0.00 | 0.00 | 0.00 | 45 | 1016.0 |
| 20260904173313 | 35 | 209 | 11.3 | 12.9 | 0.00 | 0.00 | 0.00 | 44 | 1016.3 |
| 20260904172810 | 35 | 237 | 6.4 | 9.7 | 0.00 | 0.00 | 0.00 | 44 | 1016.4 |
| 20260904172308 | 35 | 115 | 4.8 | 6.4 | 0.00 | 0.00 | 0.00 | 45 | 1016.3 |
| 20260904171804 | 35 | 166 | 8.0 | 11.3 | 0.00 | 0.00 | 0.00 | 43 | 1016.5 |
| 20260904171259 | 35 | 151 | 6.4 | 9.7 | 0.00 | 0.00 | 0.00 | 44 | 1016.4 |
| 20260904170756 | 34 | 130 | 6.4 | 9.7 | 0.00 | 0.00 | 0.00 | 45 | 1016.4 |
| 20260904170251 | 35 | 114 | 8.0 | 11.3 | 0.00 | 0.00 | 0.00 | 45 | 1016.5 |
| 20260904165750 | 34 | 319 | 4.8 | 6.4 | 0.00 | 0.00 | 0.00 | 46 | 1016.5 |
| 20260904165244 | 33 | 141 | 12.9 | 17.7 | 0.00 | 0.00 | 0.00 | 46 | 1016.6 |
| 20260904164744 | 33 | 229 | 8.0 | 9.7 | 0.00 | 0.00 | 0.00 | 47 | 1016.5 |
| 20260904164239 | 33 | 171 | 6.4 | 11.3 | 0.00 | 0.00 | 0.00 | 48 | 1016.8 |
| 20260904163735 | 33 | 83 | 6.4 | 6.4 | 0.00 | 0.00 | 0.00 | 47 | 1016.8 |
| 20260904163230 | 33 | 269 | 8.0 | 9.7 | 0.00 | 0.00 | 0.00 | 49 | 1016.7 |
| 20260904162729 | 33 | 21 | 3.2 | 3.2 | 0.00 | 0.00 | 0.00 | 49 | 1016.7 |
| 20260904162225 | 32 | 111 | 4.8 | 6.4 | 0.00 | 0.00 | 0.00 | 50 | 1016.8 |
| 20260904161720 | 32 | 188 | 11.3 | 14.5 | 0.00 | 0.00 | 0.00 | 50 | 1016.7 |
| 20260904161215 | 32 | 223 | 9.7 | 12.9 | 0.00 | 0.00 | 0.00 | 51 | 1016.7 |
| 20260904160711 | 33 | 188 | 3.2 | 6.4 | 0.00 | 0.00 | 0.00 | 51 | 1016.9 |
| 20260904160206 | 33 | 178 | 6.4 | 9.7 | 0.00 | 0.00 | 0.00 | 49 | 1016.9 |
| 20260904155701 | 32 | 56 | 1.6 | 3.2 | 0.00 | 0.00 | 0.00 | 53 | 1016.7 |
| 20260904155200 | 32 | 152 | 6.4 | 6.4 | 0.00 | 0.00 | 0.00 | 53 | 1016.8 |
| 20260904154659 | 32 | 165 | 9.7 | 9.7 | 0.00 | 0.00 | 0.00 | 54 | 1016.7 |
| 20260904154159 | 32 | 88 | 3.2 | 4.8 | 0.00 | 0.00 | 0.00 | 53 | 1016.9 |
| 20260904153654 | 32 | 113 | 6.4 | 6.4 | 0.00 | 0.00 | 0.00 | 55 | 1016.8 |
| 20260904153149 | 32 | 298 | 4.8 | 6.4 | 0.00 | 0.00 | 0.00 | 55 | 1017.0 |
| 20260904152646 | 32 | 182 | 8.0 | 12.9 | 0.00 | 0.00 | 0.00 | 56 | 1016.9 |
| 20260904152142 | 31 | 150 | 4.8 | 4.8 | 0.00 | 0.00 | 0.00 | 57 | 1016.9 |
| 20260904151641 | 31 | 199 | 4.8 | 9.7 | 0.00 | 0.00 | 0.00 | 57 | 1016.8 |
| 20260904151140 | 31 | 167 | 4.8 | 4.8 | 0.00 | 0.00 | 0.00 | 58 | 1016.9 |
| 20260904150636 | 31 | 161 | 8.0 | 9.7 | 0.00 | 0.00 | 0.00 | 59 | 1016.9 |
| 20260904150132 | 31 | 178 | 11.3 | 14.5 | 0.00 | 0.00 | 0.00 | 58 | 1017.0 |
| 20260904145630 | 30 | 171 | 4.8 | 4.8 | 0.00 | 0.00 | 0.00 | 60 | 1016.7 |
| 20260904145125 | 30 | 271 | 4.8 | 6.4 | 0.00 | 0.00 | 0.00 | 60 | 1016.8 |
| 20260904144621 | 31 | 160 | 4.8 | 6.4 | 0.00 | 0.00 | 0.00 | 59 | 1016.9 |
| 20260904144116 | 30 | 299 | 3.2 | 3.2 | 0.00 | 0.00 | 0.00 | 60 | 1016.9 |
| 20260904143612 | 30 | 130 | 6.4 | 6.4 | 0.00 | 0.00 | 0.00 | 60 | 1016.7 |
| 20260904143108 | 30 | 237 | 4.8 | 6.4 | 0.00 | 0.00 | 0.00 | 60 | 1016.9 |
| 20260904142605 | 30 | 153 | 3.2 | 3.2 | 0.00 | 0.00 | 0.00 | 62 | 1016.8 |
| 20260904142105 | 30 | 163 | 6.4 | 9.7 | 0.00 | 0.00 | 0.00 | 62 | 1017.0 |
| 20260904141601 | 29 | 303 | 1.6 | 3.2 | 0.00 | 0.00 | 0.00 | 63 | 1016.8 |
| 20260904141056 | 29 | 32 | 3.2 | 3.2 | 0.00 | 0.00 | 0.00 | 63 | 1016.9 |
| 20260904140551 | 28 | 236 | 3.2 | 3.2 | 0.00 | 0.00 | 0.00 | 64 | 1016.9 |
| 20260904140045 | 28 | 128 | 6.4 | 6.4 | 0.00 | 0.00 | 0.00 | 65 | 1017.0 |
| 20260904135544 | 28 | 39 | 3.2 | 3.2 | 0.00 | 0.00 | 0.00 | 64 | 1016.8 |
| 20260904135041 | 28 | 97 | 3.2 | 3.2 | 0.00 | 0.00 | 0.00 | 64 | 1016.8 |
| 20260904134537 | 28 | 131 | 3.2 | 3.2 | 0.00 | 0.00 | 0.00 | 63 | 1016.8 |
| 20260904134030 | 28 | 170 | 3.2 | 4.8 | 0.00 | 0.00 | 0.00 | 63 | 1016.7 |
| 20260904133526 | 27 | 31 | 0.0 | 1.6 | 0.00 | 0.00 | 0.00 | 65 | 1016.9 |
| 20260904133022 | 27 | 231 | 3.2 | 3.2 | 0.00 | 0.00 | 0.00 | 65 | 1016.8 |
| 20260904132521 | 27 | 44 | 0.0 | 1.6 | 0.00 | 0.00 | 0.00 | 66 | 1016.6 |
| 20260904132022 | 27 | 60 | 3.2 | 4.8 | 0.00 | 0.00 | 0.00 | 66 | 1016.5 |
| 20260904131521 | 27 | 209 | 4.8 | 9.7 | 0.00 | 0.00 | 0.00 | 66 | 1016.8 |
| 20260904131017 | 26 | 100 | 6.4 | 9.7 | 0.00 | 0.00 | 0.00 | 66 | 1016.7 |
| 20260904130516 | 26 | 57 | 3.2 | 4.8 | 0.00 | 0.00 | 0.00 | 66 | 1016.4 |
| 20260904130011 | 26 | 93 | 3.2 | 4.8 | 0.00 | 0.00 | 0.00 | 66 | 1016.8 |
| 20260904125508 | 26 | 44 | 3.2 | 4.8 | 0.00 | 0.00 | 0.00 | 67 | 1016.5 |
| 20260904125003 | 26 | 172 | 6.4 | 6.4 | 0.00 | 0.00 | 0.00 | 67 | 1016.5 |
| 20260904124458 | 26 | 205 | 3.2 | 4.8 | 0.00 | 0.00 | 0.00 | 67 | 1016.5 |
| 20260904123953 | 26 | 48 | 1.6 | 1.6 | 0.00 | 0.00 | 0.00 | 68 | 1016.5 |
| 20260904123448 | 26 | 130 | 6.4 | 6.4 | 0.00 | 0.00 | 0.00 | 68 | 1016.3 |
| 20260904122943 | 26 | 38 | 0.0 | 1.6 | 0.00 | 0.00 | 0.00 | 69 | 1016.3 |
| 20260904122443 | 25 | 44 | 3.2 | 3.2 | 0.00 | 0.00 | 0.00 | 69 | 1016.4 |
| 20260904121937 | 25 | 44 | 1.6 | 1.6 | 0.00 | 0.00 | 0.00 | 70 | 1016.6 |
| 20260904121434 | 25 | 67 | 1.6 | 1.6 | 0.00 | 0.00 | 0.00 | 70 | 1016.3 |
| 20260904120930 | 25 | 24 | 0.0 | 0.0 | 0.00 | 0.00 | 0.00 | 70 | 1016.5 |
| 20260904120426 | 25 | 96 | 1.6 | 1.6 | 0.00 | 0.00 | 0.00 | 70 | 1016.4 |
| 20260904115920 | 25 | 145 | 1.6 | 3.2 | 0.00 | 0.00 | 0.00 | 70 | 1016.3 |
| 20260904115416 | 25 | 340 | 1.6 | 1.6 | 0.00 | 0.00 | 0.00 | 70 | 1016.1 |
| 20260904114910 | 25 | 194 | 3.2 | 4.8 | 0.00 | 0.00 | 0.00 | 70 | 1016.0 |
| 20260904114405 | 25 | 50 | 1.6 | 1.6 | 0.00 | 0.00 | 0.00 | 70 | 1016.1 |
| 20260904113901 | 25 | 98 | 3.2 | 4.8 | 0.00 | 0.00 | 0.00 | 70 | 1016.1 |
| 20260904113400 | 25 | 64 | 3.2 | 3.2 | 0.00 | 0.00 | 0.00 | 70 | 1016.2 |
| 20260904112859 | 25 | 30 | 3.2 | 3.2 | 0.00 | 0.00 | 0.00 | 70 | 1016.0 |
| 20260904112355 | 25 | 5 | 3.2 | 3.2 | 0.00 | 0.00 | 0.00 | 70 | 1016.0 |
| 20260904111851 | 25 | 47 | 1.6 | 1.6 | 0.00 | 0.00 | 0.00 | 70 | 1016.0 |
| 20260904111346 | 25 | 67 | 1.6 | 1.6 | 0.00 | 0.00 | 0.00 | 69 | 1015.9 |
| 20260904110842 | 25 | 32 | 1.6 | 3.2 | 0.00 | 0.00 | 0.00 | 69 | 1016.0 |
| 20260904110341 | 25 | 50 | 1.6 | 3.2 | 0.00 | 0.00 | 0.00 | 69 | 1015.9 |
| 20260904105836 | 25 | 115 | 3.2 | 3.2 | 0.00 | 0.00 | 0.00 | 69 | 1015.8 |
| 20260904105331 | 25 | 23 | 1.6 | 1.6 | 0.00 | 0.00 | 0.00 | 68 | 1015.7 |
| 20260904104826 | 26 | 1 | 1.6 | 1.6 | 0.00 | 0.00 | 0.00 | 68 | 1015.9 |
| 20260904104321 | 26 | 41 | 1.6 | 1.6 | 0.00 | 0.00 | 0.00 | 68 | 1015.7 |
| 20260904103818 | 26 | 164 | 8.0 | 11.3 | 0.00 | 0.00 | 0.00 | 67 | 1015.5 |
| 20260904103317 | 26 | 162 | 3.2 | 4.8 | 0.00 | 0.00 | 0.00 | 67 | 1015.5 |
| 20260904102813 | 26 | 190 | 3.2 | 3.2 | 0.00 | 0.00 | 0.00 | 67 | 1015.6 |
| 20260904102309 | 26 | 205 | 3.2 | 4.8 | 0.00 | 0.00 | 0.00 | 66 | 1015.6 |
| 20260904101804 | 26 | 42 | 1.6 | 1.6 | 0.00 | 0.00 | 0.00 | 66 | 1015.4 |
| 20260904101301 | 26 | 116 | 3.2 | 4.8 | 0.00 | 0.00 | 0.00 | 66 | 1015.4 |
| 20260904100756 | 26 | 178 | 6.4 | 11.3 | 0.00 | 0.00 | 0.00 | 66 | 1015.4 |
| 20260904100252 | 26 | 57 | 3.2 | 3.2 | 0.00 | 0.00 | 0.00 | 65 | 1015.4 |
| 20260904095752 | 26 | 55 | 1.6 | 1.6 | 0.00 | 0.00 | 0.00 | 65 | 1015.5 |
| 20260904095247 | 26 | 185 | 3.2 | 4.8 | 0.00 | 0.00 | 0.00 | 65 | 1015.5 |
| 20260904094742 | 26 | 46 | 1.6 | 1.6 | 0.00 | 0.00 | 0.00 | 65 | 1015.5 |
| 20260904094237 | 26 | 74 | 4.8 | 6.4 | 0.00 | 0.00 | 0.00 | 65 | 1015.5 |
| 20260904093733 | 26 | 182 | 4.8 | 4.8 | 0.00 | 0.00 | 0.00 | 65 | 1015.2 |
| 20260904093232 | 26 | 163 | 4.8 | 6.4 | 0.00 | 0.00 | 0.00 | 64 | 1015.2 |
| 20260904092729 | 27 | 194 | 3.2 | 3.2 | 0.00 | 0.00 | 0.00 | 64 | 1015.2 |
| 20260904092225 | 27 | 137 | 4.8 | 6.4 | 0.00 | 0.00 | 0.00 | 64 | 1015.2 |
| 20260904091721 | 27 | 34 | 1.6 | 1.6 | 0.00 | 0.00 | 0.00 | 63 | 1015.1 |
| 20260904091221 | 27 | 99 | 1.6 | 3.2 | 0.00 | 0.00 | 0.00 | 63 | 1015.1 |
| 20260904090717 | 27 | 198 | 4.8 | 4.8 | 0.00 | 0.00 | 0.00 | 63 | 1015.0 |
| 20260904090212 | 27 | 7 | 0.0 | 1.6 | 0.00 | 0.00 | 0.00 | 63 | 1015.1 |
| 20260904085708 | 27 | 40 | 0.0 | 1.6 | 0.00 | 0.00 | 0.00 | 63 | 1015.0 |
| 20260904085208 | 27 | 46 | 1.6 | 3.2 | 0.00 | 0.00 | 0.00 | 63 | 1015.1 |
| 20260904084702 | 27 | 345 | 1.6 | 1.6 | 0.00 | 0.00 | 0.00 | 63 | 1014.9 |
| 20260904084159 | 27 | 21 | 1.6 | 1.6 | 0.00 | 0.00 | 0.00 | 63 | 1015.0 |
| 20260904083655 | 27 | 31 | 1.6 | 1.6 | 0.00 | 0.00 | 0.00 | 63 | 1014.8 |
| 20260904083151 | 27 | 60 | 1.6 | 3.2 | 0.00 | 0.00 | 0.00 | 63 | 1014.9 |
| 20260904082645 | 27 | 99 | 3.2 | 3.2 | 0.00 | 0.00 | 0.00 | 62 | 1014.9 |
| 20260904082141 | 27 | 78 | 3.2 | 4.8 | 0.00 | 0.00 | 0.00 | 62 | 1015.1 |
| 20260904081636 | 27 | 7 | 1.6 | 1.6 | 0.00 | 0.00 | 0.00 | 62 | 1014.8 |
| 20260904081131 | 27 | 13 | 0.0 | 1.6 | 0.00 | 0.00 | 0.00 | 61 | 1014.7 |
| 20260904080627 | 27 | 11 | 1.6 | 3.2 | 0.00 | 0.00 | 0.00 | 61 | 1014.8 |
| 20260904080123 | 27 | 148 | 4.8 | 4.8 | 0.00 | 0.00 | 0.00 | 61 | 1014.7 |
| 20260904075619 | 27 | 170 | 4.8 | 4.8 | 0.00 | 0.00 | 0.00 | 61 | 1014.7 |
| 20260904075119 | 27 | 166 | 4.8 | 4.8 | 0.00 | 0.00 | 0.00 | 61 | 1014.7 |
| 20260904074618 | 27 | 24 | 0.0 | 1.6 | 0.00 | 0.00 | 0.00 | 60 | 1014.8 |
| 20260904074113 | 27 | 232 | 3.2 | 3.2 | 0.00 | 0.00 | 0.00 | 60 | 1014.8 |
| 20260904073608 | 28 | 153 | 3.2 | 3.2 | 0.00 | 0.00 | 0.00 | 60 | 1014.6 |
| 20260904073104 | 28 | 23 | 1.6 | 1.6 | 0.00 | 0.00 | 0.00 | 60 | 1014.5 |
| 20260904072600 | 28 | 164 | 4.8 | 6.4 | 0.00 | 0.00 | 0.00 | 59 | 1014.6 |
| 20260904072055 | 28 | 140 | 3.2 | 4.8 | 0.00 | 0.00 | 0.00 | 59 | 1014.6 |
| 20260904071550 | 28 | 345 | 3.2 | 4.8 | 0.00 | 0.00 | 0.00 | 59 | 1014.8 |
| 20260904071045 | 28 | 88 | 1.6 | 1.6 | 0.00 | 0.00 | 0.00 | 59 | 1014.8 |
| 20260904070544 | 28 | 181 | 6.4 | 6.4 | 0.00 | 0.00 | 0.00 | 59 | 1014.6 |
| 20260904070039 | 28 | 126 | 4.8 | 4.8 | 0.00 | 0.00 | 0.00 | 59 | 1014.8 |
| 20260904065534 | 28 | 66 | 4.8 | 6.4 | 0.00 | 0.00 | 0.00 | 59 | 1014.6 |
| 20260904065031 | 28 | 169 | 6.4 | 9.7 | 0.00 | 0.00 | 0.00 | 59 | 1014.6 |
| 20260904064527 | 28 | 47 | 1.6 | 1.6 | 0.00 | 0.00 | 0.00 | 59 | 1014.6 |
| 20260904064026 | 28 | 45 | 3.2 | 3.2 | 0.00 | 0.00 | 0.00 | 59 | 1014.6 |
| 20260904063523 | 28 | 58 | 3.2 | 3.2 | 0.00 | 0.00 | 0.00 | 59 | 1014.7 |
| 20260904063023 | 28 | 102 | 1.6 | 1.6 | 0.00 | 0.00 | 0.00 | 59 | 1014.8 |
| 20260904062520 | 28 | 94 | 4.8 | 4.8 | 0.00 | 0.00 | 0.00 | 59 | 1014.6 |
| 20260904062015 | 28 | 13 | 1.6 | 1.6 | 0.00 | 0.00 | 0.00 | 59 | 1014.6 |
| 20260904061511 | 28 | 26 | 3.2 | 4.8 | 0.00 | 0.00 | 0.00 | 59 | 1014.4 |
| 20260904061007 | 28 | 79 | 3.2 | 3.2 | 0.00 | 0.00 | 0.00 | 59 | 1014.8 |
| 20260904060503 | 28 | 161 | 6.4 | 6.4 | 0.00 | 0.00 | 0.00 | 58 | 1014.7 |
| 20260904055958 | 28 | 158 | 6.4 | 6.4 | 0.00 | 0.00 | 0.00 | 58 | 1014.7 |
| 20260904055454 | 28 | 146 | 3.2 | 4.8 | 0.00 | 0.00 | 0.00 | 58 | 1014.5 |
| 20260904054949 | 28 | 98 | 6.4 | 6.4 | 0.00 | 0.00 | 0.00 | 57 | 1014.6 |
| 20260904054444 | 28 | 43 | 1.6 | 1.6 | 0.00 | 0.00 | 0.00 | 57 | 1014.5 |
| 20260904053940 | 28 | 175 | 3.2 | 4.8 | 0.00 | 0.00 | 0.00 | 57 | 1014.6 |
| 20260904053439 | 28 | 186 | 1.6 | 3.2 | 0.00 | 0.00 | 0.00 | 57 | 1014.4 |
| 20260904052936 | 28 | 39 | 1.6 | 1.6 | 0.00 | 0.00 | 0.00 | 56 | 1014.4 |
| 20260904052432 | 29 | 39 | 3.2 | 3.2 | 0.00 | 0.00 | 0.00 | 56 | 1014.4 |
| 20260904051927 | 29 | 115 | 4.8 | 4.8 | 0.00 | 0.00 | 0.00 | 56 | 1014.6 |
| 20260904051424 | 29 | 23 | 3.2 | 4.8 | 0.00 | 0.00 | 0.00 | 56 | 1014.5 |
| 20260904050918 | 29 | 177 | 3.2 | 3.2 | 0.00 | 0.00 | 0.00 | 55 | 1014.6 |
| 20260904050414 | 29 | 157 | 4.8 | 4.8 | 0.00 | 0.00 | 0.00 | 55 | 1014.7 |
| 20260904045914 | 29 | 165 | 6.4 | 9.7 | 0.00 | 0.00 | 0.00 | 55 | 1014.5 |
| 20260904045409 | 29 | 44 | 3.2 | 4.8 | 0.00 | 0.00 | 0.00 | 55 | 1014.4 |
| 20260904044909 | 30 | 56 | 3.2 | 3.2 | 0.00 | 0.00 | 0.00 | 54 | 1014.5 |
| 20260904044406 | 30 | 142 | 3.2 | 4.8 | 0.00 | 0.00 | 0.00 | 54 | 1014.2 |
| 20260904043901 | 30 | 40 | 3.2 | 3.2 | 0.00 | 0.00 | 0.00 | 54 | 1014.4 |
| 20260904043358 | 30 | 18 | 0.0 | 0.0 | 0.00 | 0.00 | 0.00 | 53 | 1014.5 |
| 20260904042853 | 30 | 46 | 1.6 | 1.6 | 0.00 | 0.00 | 0.00 | 53 | 1014.4 |
| 20260904042349 | 30 | 139 | 4.8 | 4.8 | 0.00 | 0.00 | 0.00 | 52 | 1014.4 |
| 20260904041843 | 30 | 28 | 0.0 | 1.6 | 0.00 | 0.00 | 0.00 | 52 | 1014.4 |
| 20260904041339 | 30 | 32 | 1.6 | 1.6 | 0.00 | 0.00 | 0.00 | 52 | 1014.2 |
| 20260904040835 | 30 | 81 | 3.2 | 3.2 | 0.00 | 0.00 | 0.00 | 51 | 1014.2 |
| 20260904040330 | 30 | 20 | 1.6 | 1.6 | 0.00 | 0.00 | 0.00 | 51 | 1014.2 |
| 20260904035826 | 30 | 28 | 3.2 | 3.2 | 0.00 | 0.00 | 0.00 | 51 | 1014.1 |
| 20260904035323 | 31 | 37 | 1.6 | 3.2 | 0.00 | 0.00 | 0.00 | 51 | 1014.1 |
| 20260904034821 | 31 | 174 | 3.2 | 3.2 | 0.00 | 0.00 | 0.00 | 50 | 1014.1 |
| 20260904034317 | 31 | 138 | 3.2 | 4.8 | 0.00 | 0.00 | 0.00 | 50 | 1014.4 |
| 20260904033813 | 31 | 32 | 0.0 | 1.6 | 0.00 | 0.00 | 0.00 | 50 | 1014.4 |
| 20260904033309 | 31 | 69 | 1.6 | 3.2 | 0.00 | 0.00 | 0.00 | 50 | 1014.5 |
| 20260904032805 | 31 | 137 | 6.4 | 6.4 | 0.00 | 0.00 | 0.00 | 49 | 1014.1 |
| 20260904032306 | 31 | 145 | 3.2 | 3.2 | 0.00 | 0.00 | 0.00 | 50 | 1014.2 |
| 20260904031758 | 31 | 47 | 1.6 | 1.6 | 0.00 | 0.00 | 0.00 | 50 | 1014.4 |
| 20260904031254 | 31 | 64 | 1.6 | 3.2 | 0.00 | 0.00 | 0.00 | 50 | 1014.2 |
| 20260904030750 | 31 | 42 | 0.0 | 1.6 | 0.00 | 0.00 | 0.00 | 50 | 1014.2 |
| 20260904030245 | 31 | 83 | 0.0 | 1.6 | 0.00 | 0.00 | 0.00 | 49 | 1014.4 |
| 20260904025741 | 31 | 27 | 0.0 | 0.0 | 0.00 | 0.00 | 0.00 | 49 | 1014.1 |
| 20260904025236 | 31 | 28 | 1.6 | 1.6 | 0.00 | 0.00 | 0.00 | 49 | 1014.0 |
| 20260904024732 | 31 | 30 | 0.0 | 0.0 | 0.00 | 0.00 | 0.00 | 49 | 1013.7 |
| 20260904024227 | 31 | 34 | 1.6 | 1.6 | 0.00 | 0.00 | 0.00 | 49 | 1014.0 |
| 20260904023723 | 31 | 40 | 3.2 | 3.2 | 0.00 | 0.00 | 0.00 | 48 | 1013.9 |
| 20260904023219 | 32 | 38 | 0.0 | 1.6 | 0.00 | 0.00 | 0.00 | 48 | 1013.8 |
| 20260904022718 | 32 | 60 | 1.6 | 1.6 | 0.00 | 0.00 | 0.00 | 47 | 1013.8 |
| 20260904022216 | 32 | 42 | 1.6 | 3.2 | 0.00 | 0.00 | 0.00 | 47 | 1013.5 |
| 20260904021711 | 32 | 46 | 0.0 | 0.0 | 0.00 | 0.00 | 0.00 | 47 | 1013.5 |
| 20260904021206 | 32 | 337 | 1.6 | 1.6 | 0.00 | 0.00 | 0.00 | 46 | 1013.3 |
| 20260904020702 | 32 | 213 | 3.2 | 4.8 | 0.00 | 0.00 | 0.00 | 46 | 1013.2 |
| 20260904020201 | 32 | 165 | 3.2 | 3.2 | 0.00 | 0.00 | 0.00 | 46 | 1013.3 |
| 20260904015700 | 32 | 20 | 0.0 | 1.6 | 0.00 | 0.00 | 0.00 | 46 | 1013.4 |
| 20260904015201 | 32 | 41 | 3.2 | 3.2 | 0.00 | 0.00 | 0.00 | 46 | 1013.2 |
| 20260904014659 | 32 | 12 | 0.0 | 1.6 | 0.00 | 0.00 | 0.00 | 46 | 1013.3 |
| 20260904014154 | 32 | 325 | 0.0 | 1.6 | 0.00 | 0.00 | 0.00 | 45 | 1013.1 |
| 20260904013652 | 33 | 4 | 0.0 | 1.6 | 0.00 | 0.00 | 0.00 | 45 | 1012.9 |
| 20260904013147 | 33 | 148 | 3.2 | 4.8 | 0.00 | 0.00 | 0.00 | 44 | 1012.8 |
| 20260904012643 | 33 | 4 | 1.6 | 1.6 | 0.00 | 0.00 | 0.00 | 44 | 1012.8 |
| 20260904012141 | 33 | 32 | 1.6 | 3.2 | 0.00 | 0.00 | 0.00 | 44 | 1012.8 |
| 20260904011640 | 33 | 327 | 0.0 | 1.6 | 0.00 | 0.00 | 0.00 | 43 | 1012.8 |
| 20260904011137 | 33 | 110 | 4.8 | 4.8 | 0.00 | 0.00 | 0.00 | 43 | 1012.7 |
| 20260904010632 | 33 | 181 | 3.2 | 4.8 | 0.00 | 0.00 | 0.00 | 42 | 1012.6 |
| 20260904010129 | 34 | 31 | 0.0 | 1.6 | 0.00 | 0.00 | 0.00 | 42 | 1012.6 |
| 20260904005624 | 34 | 126 | 3.2 | 4.8 | 0.00 | 0.00 | 0.00 | 41 | 1012.7 |
| 20260904005119 | 34 | 203 | 6.4 | 6.4 | 0.00 | 0.00 | 0.00 | 41 | 1012.5 |
| 20260904004615 | 35 | 81 | 4.8 | 4.8 | 0.00 | 0.00 | 0.00 | 41 | 1012.6 |
| 20260904004114 | 35 | 343 | 1.6 | 1.6 | 0.00 | 0.00 | 0.00 | 40 | 1012.5 |
| 20260904003610 | 35 | 125 | 6.4 | 6.4 | 0.00 | 0.00 | 0.00 | 40 | 1012.5 |
| 20260904003106 | 35 | 140 | 3.2 | 4.8 | 0.00 | 0.00 | 0.00 | 40 | 1012.4 |
| 20260904002602 | 35 | 201 | 3.2 | 4.8 | 0.00 | 0.00 | 0.00 | 39 | 1012.4 |
| 20260904002102 | 35 | 42 | 3.2 | 4.8 | 0.00 | 0.00 | 0.00 | 39 | 1012.6 |
| 20260904001557 | 35 | 97 | 6.4 | 6.4 | 0.00 | 0.00 | 0.00 | 39 | 1012.4 |
| 20260904001056 | 35 | 180 | 1.6 | 3.2 | 0.00 | 0.00 | 0.00 | 38 | 1012.4 |
| 20260904000551 | 36 | 205 | 8.0 | 9.7 | 0.00 | 0.00 | 0.00 | 38 | 1012.4 |
| 20260904000047 | 36 | 211 | 8.0 | 9.7 | 0.00 | 0.00 | 0.00 | 37 | 1012.4 |
| 20260903235542 | 36 | 50 | 4.8 | 4.8 | 0.00 | 0.00 | 0.00 | 37 | 1012.3 |
| 20260903235037 | 36 | 199 | 3.2 | 4.8 | 0.00 | 0.00 | 0.00 | 36 | 1012.3 |
| 20260903234533 | 36 | 37 | 1.6 | 3.2 | 0.00 | 0.00 | 0.00 | 37 | 1012.3 |
| 20260903234028 | 36 | 141 | 6.4 | 6.4 | 0.00 | 0.00 | 0.00 | 37 | 1012.3 |
| 20260903233524 | 36 | 252 | 6.4 | 6.4 | 0.00 | 0.00 | 0.00 | 36 | 1012.4 |
| 20260903233020 | 36 | 109 | 6.4 | 9.7 | 0.00 | 0.00 | 0.00 | 36 | 1012.4 |
| 20260903232514 | 37 | 186 | 12.9 | 14.5 | 0.00 | 0.00 | 0.00 | 35 | 1012.4 |
| 20260903232009 | 37 | 171 | 6.4 | 9.7 | 0.00 | 0.00 | 0.00 | 35 | 1012.2 |
| 20260903231503 | 37 | 132 | 11.3 | 16.1 | 0.00 | 0.00 | 0.00 | 35 | 1012.3 |
| 20260903230958 | 37 | 184 | 8.0 | 11.3 | 0.00 | 0.00 | 0.00 | 34 | 1012.3 |
| 20260903230454 | 38 | 174 | 4.8 | 6.4 | 0.00 | 0.00 | 0.00 | 34 | 1012.1 |
| 20260903225951 | 37 | 222 | 3.2 | 4.8 | 0.00 | 0.00 | 0.00 | 34 | 1012.2 |
| 20260903225445 | 37 | 239 | 6.4 | 6.4 | 0.00 | 0.00 | 0.00 | 34 | 1012.2 |
| 20260903224942 | 37 | 249 | 6.4 | 6.4 | 0.00 | 0.00 | 0.00 | 34 | 1012.2 |
| 20260903224437 | 38 | 146 | 4.8 | 4.8 | 0.00 | 0.00 | 0.00 | 34 | 1012.2 |
| 20260903223933 | 38 | 106 | 4.8 | 6.4 | 0.00 | 0.00 | 0.00 | 34 | 1012.0 |
| 20260903223432 | 38 | 358 | 3.2 | 3.2 | 0.00 | 0.00 | 0.00 | 33 | 1012.1 |
| 20260903222931 | 38 | 314 | 3.2 | 4.8 | 0.00 | 0.00 | 0.00 | 34 | 1012.2 |
| 20260903222427 | 37 | 161 | 3.2 | 4.8 | 0.00 | 0.00 | 0.00 | 35 | 1012.0 |
| 20260903221921 | 38 | 218 | 4.8 | 6.4 | 0.00 | 0.00 | 0.00 | 33 | 1012.1 |
| 20260903221420 | 38 | 177 | 4.8 | 4.8 | 0.00 | 0.00 | 0.00 | 33 | 1012.1 |
| 20260903220918 | 37 | 107 | 9.7 | 11.3 | 0.00 | 0.00 | 0.00 | 34 | 1012.0 |
| 20260903220412 | 37 | 320 | 3.2 | 6.4 | 0.00 | 0.00 | 0.00 | 34 | 1012.1 |
| 20260903215909 | 37 | 204 | 8.0 | 12.9 | 0.00 | 0.00 | 0.00 | 34 | 1012.3 |
| 20260903215407 | 38 | 190 | 11.3 | 14.5 | 0.00 | 0.00 | 0.00 | 33 | 1012.3 |
| 20260903214905 | 38 | 210 | 6.4 | 11.3 | 0.00 | 0.00 | 0.00 | 33 | 1012.4 |
| 20260903214401 | 37 | 220 | 4.8 | 6.4 | 0.00 | 0.00 | 0.00 | 33 | 1012.4 |
| 20260903213901 | 37 | 116 | 9.7 | 12.9 | 0.00 | 0.00 | 0.00 | 33 | 1012.5 |
| 20260903213356 | 38 | 201 | 11.3 | 14.5 | 0.00 | 0.00 | 0.00 | 34 | 1012.6 |
| 20260903212851 | 37 | 336 | 3.2 | 4.8 | 0.00 | 0.00 | 0.00 | 34 | 1012.7 |
| 20260903212348 | 37 | 74 | 3.2 | 4.8 | 0.00 | 0.00 | 0.00 | 34 | 1012.8 |
| 20260903211847 | 38 | 52 | 4.8 | 4.8 | 0.00 | 0.00 | 0.00 | 34 | 1012.8 |
| 20260903211343 | 37 | 227 | 11.3 | 14.5 | 0.00 | 0.00 | 0.00 | 33 | 1012.8 |
| 20260903210839 | 37 | 216 | 4.8 | 4.8 | 0.00 | 0.00 | 0.00 | 34 | 1012.7 |